Wind_Speed
22 23 25 26 26 26 28 29 31 30 30 30 31 32 33 33 33 33 34 35 36 36 36 37 37 38 39 41 41 42 43 43 43 43 43 42 42 42 42 42 42 42 41 42
20 22 24 24 24 23 25 26 28 29 30 29 31 32 32 32 31 32 33 34 35 35 36 36 37 37 38 39 40 40 42 43 44 43 43 43 43 43 43 42 42 41 41 40
19 20 23 22 20 21 23 24 26 27 27 27 28 29 30 30 30 31 32 33 34 34 35 35 36 37 37 38 38 39 39 41 42 43 43 43 44 43 43 42 40 40 40 39
19 20 21 20 19 19 21 22 23 24 24 26 26 27 28 28 28 28 29 30 31 32 32 33 35 36 37 37 37 37 37 39 40 41 41 42 43 42 42 42 41 40 40 40
18 19 19 18 18 19 22 22 22 22 23 23 24 25 25 26 26 26 27 27 28 30 30 30 31 32 34 35 35 36 36 37 38 39 39 39 40 40 40 40 40 40 40 40
17 17 17 18 18 19 21 21 21 22 22 23 23 25 24 24 24 25 25 26 27 28 28 29 29 31 32 33 33 34 35 36 36 37 37 38 38 38 39 39 40 40 39 39
17 17 18 17 16 17 19 20 20 21 21 21 23 23 24 24 23 23 24 26 27 27 27 27 28 29 29 30 30 31 32 33 34 35 36 36 37 37 37 38 38 39 39 39
15 17 17 16 16 17 18 19 19 20 20 21 21 22 23 24 24 24 24 25 26 27 27 27 27 27 28 29 29 29 30 30 31 33 35 36 36 36 36 36 37 38 38 38
15 15 15 15 16 17 18 18 19 19 19 20 20 21 21 23 24 24 24 25 26 27 27 27 27 27 28 28 29 29 29 30 30 31 32 34 35 36 36 36 36 37 38 39
14 15 16 16 16 17 17 18 19 19 20 20 20 20 20 21 22 23 23 24 24 25 27 27 28 28 28 28 28 28 29 29 29 30 31 32 33 33 34 34 35 35 35 36
14 14 15 16 16 17 17 18 19 19 20 21 21 21 21 21 22 23 23 24 25 25 26 27 29 29 29 29 29 29 29 29 29 29 29 30 30 31 32 33 33 33 34 34
15 14 15 15 16 17 18 18 19 20 20 20 20 20 20 21 22 23 24 24 25 25 26 27 28 28 29 30 30 30 29 28 28 28 28 29 29 30 30 30 31 32 32 33
15 15 15 15 16 17 17 17 18 18 18 18 19 19 19 20 21 21 22 23 24 25 25 26 26 27 28 28 28 28 28 28 28 28 28 29 29 28 29 29 30 31 31 31
16 16 15 16 16 17 16 16 16 17 17 17 18 18 19 19 20 20 21 21 22 23 24 25 26 26 27 28 28 28 29 29 29 29 29 28 28 29 29 29 30 30 31 31
17 17 18 18 17 17 17 17 17 16 16 17 17 17 18 18 19 19 20 20 21 21 22 23 24 25 26 27 27 28 28 29 29 30 30 29 29 29 30 30 30 30 30 30
17 18 19 19 19 19 19 18 18 18 17 17 18 18 18 18 18 19 19 20 21 21 21 22 22 23 25 25 26 26 26 27 28 29 29 30 30 30 30 30 31 31 31 30
17 18 19 19 20 20 20 20 19 19 19 19 19 20 20 20 20 20 21 21 22 22 21 22 22 22 23 24 25 25 26 26 27 28 29 29 30 30 31 31 31 31 31 31
18 19 19 19 19 20 20 20 20 20 20 20 21 22 22 22 21 21 22 22 21 21 22 22 22 22 23 24 24 25 25 26 27 28 28 29 29 29 30 31 31 32 32 32
19 20 20 20 20 20 20 21 21 21 22 22 22 22 22 22 22 22 21 21 21 21 22 22 22 23 23 24 25 26 26 26 27 28 28 29 29 30 30 31 31 32 33 33
20 20 20 20 21 21 21 21 22 22 23 23 22 22 22 23 23 23 22 22 22 21 22 22 23 23 24 24 25 26 27 27 28 29 29 30 31 31 31 32 32 33 33 33
19 20 20 20 21 21 21 22 22 22 22 23 23 23 23 23 23 23 23 22 23 23 23 24 24 25 25 26 26 26 27 28 29 30 30 31 31 32 32 32 32 33 33 33
20 20 20 20 20 20 21 21 21 21 22 22 23 23 23 23 23 23 23 23 24 24 24 25 26 26 26 26 26 27 27 28 29 30 30 31 31 31 32 32 31 31 31 31
20 20 20 19 19 19 19 20 20 20 21 21 21 21 22 22 22 23 23 23 24 24 25 26 26 26 26 27 27 28 28 29 29 30 30 30 30 30 30 30 30 30 30 30
19 19 19 19 19 19 19 19 19 19 19 19 20 20 20 21 21 21 22 22 23 23 24 25 25 26 26 26 27 27 27 27 28 28 28 28 28 29 29 30 30 30 30 30
19 19 19 19 18 18 18 18 18 18 18 17 18 18 19 19 20 20 21 21 21 22 23 24 24 25 25 25 25 25 26 26 26 25 26 26 26 26 27 28 29 29 29 29
20 19 19 18 17 17 16 16 16 16 16 17 17 17 17 17 18 19 19 20 20 20 21 21 22 23 23 23 23 24 24 24 24 24 24 24 24 24 24 24 25 25 26 26
20 19 19 18 17 16 16 16 16 16 16 16 16 16 16 16 17 17 18 18 19 20 20 20 20 20 20 21 21 21 21 22 22 23 23 22 22 22 22 22 22 23 24 24
Wind_Direction
260 259 259 258 256 254 251 250 252 254 256 257 257 256 255 254 250 248 246 244 244 243 244 245 244 244 245 246 246 245 244 244 245 246 245 245 246 247 248 249 249 251 253 255
261 260 259 257 256 256 253 252 254 254 255 256 254 255 257 255 250 248 246 245 244 243 244 246 245 246 247 247 246 246 246 246 245 246 246 245 245 246 247 249 250 251 252 253
262 262 263 260 256 255 254 254 256 255 255 255 254 256 258 255 250 249 247 246 244 243 243 244 244 246 248 247 245 246 246 246 246 246 246 245 245 246 247 249 250 251 252 253
265 262 262 261 258 257 257 257 257 257 258 258 257 258 258 253 251 249 247 247 245 243 244 244 244 245 247 247 245 246 246 246 247 247 246 246 245 246 247 249 249 251 252 253
265 265 263 260 259 259 260 263 260 259 261 260 258 257 255 252 250 248 248 247 244 241 243 244 245 245 244 245 247 248 247 247 246 245 245 245 245 245 246 247 249 251 253 254
266 266 266 266 265 265 262 264 262 263 264 261 258 256 253 252 250 249 248 246 245 243 243 244 245 244 244 245 247 248 248 247 246 245 244 244 245 245 246 247 249 252 252 254
267 266 266 268 270 266 264 264 263 263 265 264 260 257 254 252 251 251 248 247 247 246 245 243 243 242 243 246 247 248 248 248 245 244 244 244 245 246 247 248 249 251 253 254
271 268 268 269 268 267 267 266 265 265 265 265 264 261 257 254 253 251 249 248 248 247 246 245 244 243 243 246 246 248 247 247 246 246 245 245 245 246 247 248 250 251 252 254
272 271 271 269 267 265 265 266 266 265 264 264 264 264 260 257 255 253 252 252 250 248 246 246 246 245 246 245 245 246 246 246 246 247 247 248 248 248 249 250 252 252 254 254
272 267 267 268 268 267 266 267 266 267 266 267 265 265 262 259 256 256 257 255 253 252 250 248 247 248 249 247 246 246 246 246 247 248 249 250 249 249 250 251 251 253 254 255
272 271 270 269 270 270 269 270 269 269 270 268 267 264 262 261 261 261 260 258 257 256 254 252 251 249 249 249 248 248 249 249 248 248 249 249 250 251 252 252 253 253 255 256
273 275 276 274 273 273 273 272 271 271 272 270 267 264 262 262 262 260 259 258 258 258 257 255 252 250 251 250 249 249 249 249 248 247 248 249 250 251 252 252 253 254 255 257
276 276 278 276 277 277 276 274 272 271 270 268 267 265 263 262 261 260 259 259 259 258 257 256 254 252 251 249 248 247 247 247 247 247 249 249 250 251 251 253 255 256 257 258
277 278 280 279 279 279 276 275 276 274 271 269 266 265 264 263 262 260 259 260 260 259 258 257 255 252 251 248 248 248 248 248 248 248 250 251 251 252 253 254 255 257 258 260
281 282 284 283 282 280 278 277 277 276 273 270 268 267 266 265 264 262 261 260 260 259 259 256 253 252 250 248 247 248 248 248 249 250 250 251 253 254 254 254 256 258 259 261
282 285 285 283 282 280 278 279 278 275 273 272 271 269 269 268 267 264 262 261 261 261 259 255 253 252 249 247 246 247 248 249 250 251 252 252 253 254 255 256 257 259 260 262
285 286 285 283 283 280 278 277 277 277 277 275 274 273 272 270 268 266 264 263 261 259 256 254 254 254 252 249 248 249 250 250 251 252 253 253 254 255 256 258 259 259 260 262
287 288 287 285 283 280 277 277 276 276 278 278 277 275 273 271 269 268 267 264 261 259 256 254 256 256 256 254 253 254 254 254 254 255 255 255 256 257 258 258 259 260 261 263
288 289 288 286 284 282 279 277 276 276 277 277 277 276 274 272 271 269 268 265 262 260 257 257 258 260 260 259 259 258 258 258 258 258 258 259 259 260 260 261 261 262 263 264
292 291 289 287 286 285 283 280 278 278 277 276 275 275 274 273 272 271 268 266 264 262 259 259 261 263 264 264 262 260 259 259 260 261 262 262 262 262 262 263 263 263 264 265
293 293 292 289 288 288 286 283 280 278 277 276 274 274 273 273 272 271 268 266 265 263 262 262 264 265 265 264 262 262 261 261 262 263 263 263 263 263 263 264 264 265 265 266
295 295 293 291 290 289 287 285 283 281 279 277 276 275 274 273 271 269 268 266 265 264 264 265 266 266 265 263 263 263 263 263 263 264 264 264 264 264 264 264 264 264 265 267
297 297 295 293 292 291 290 288 285 283 281 280 279 277 276 274 271 269 268 267 265 264 265 266 266 266 264 264 264 264 265 265 265 266 265 265 265 264 264 263 264 264 266 267
301 300 299 296 293 291 289 288 287 286 283 281 279 277 276 275 273 272 270 268 267 265 265 266 267 267 266 266 265 265 266 266 266 266 265 264 264 264 264 264 264 264 266 267
302 301 300 298 294 291 289 287 287 287 287 285 282 280 279 277 275 274 272 271 269 268 268 268 268 268 267 266 265 265 265 265 266 266 265 264 265 266 266 265 264 264 265 266
302 301 300 299 296 293 292 291 289 289 289 289 287 283 281 280 279 278 276 274 273 271 271 270 270 269 267 266 266 265 265 265 265 265 265 265 265 265 266 265 264 264 265 266
302 300 299 299 297 294 293 293 293 292 292 291 290 287 284 282 282 281 280 278 275 273 272 272 272 270 268 266 266 266 265 265 265 265 265 264 264 265 265 265 265 265 266 267
Height
5516 5517 5518 5519 5521 5523 5526 5527 5530 5531 5532 5534 5535 5537 5539 5541 5543 5545 5547 5551 5554 5558 5561 5564 5567 5570 5573 5576 5579 5583 5587 5590 5594 5598 5602 5605 5609 5612 5615 5619 5622 5625 5627 5630
5510 5511 5512 5513 5515 5516 5518 5520 5521 5523 5525 5526 5527 5529 5530 5532 5534 5537 5539 5542 5545 5549 5552 5554 5557 5560 5563 5566 5569 5573 5576 5580 5583 5587 5591 5594 5598 5602 5605 5609 5612 5614 5617 5619
5505 5505 5505 5507 5509 5510 5511 5512 5514 5515 5518 5518 5519 5521 5522 5524 5526 5528 5531 5533 5536 5539 5543 5545 5548 5551 5554 5557 5560 5563 5566 5570 5573 5577 5580 5584 5588 5591 5595 5598 5601 5604 5606 5609
5499 5500 5500 5504 5504 5505 5505 5506 5507 5509 5510 5511 5512 5513 5514 5516 5518 5521 5523 5525 5528 5530 5534 5537 5539 5542 5545 5547 5550 5553 5557 5560 5563 5566 5570 5574 5578 5581 5585 5588 5591 5594 5596 5599
5494 5494 5495 5498 5499 5499 5500 5500 5502 5503 5503 5504 5505 5506 5508 5509 5511 5514 5516 5518 5520 5523 5525 5528 5531 5533 5536 5539 5541 5544 5547 5550 5553 5556 5560 5564 5567 5571 5574 5578 5581 5583 5586 5588
5489 5490 5490 5493 5494 5494 5495 5495 5496 5496 5497 5498 5498 5500 5502 5503 5505 5507 5509 5511 5513 5515 5517 5520 5522 5525 5527 5530 5533 5535 5538 5541 5543 5546 5550 5554 5557 5561 5564 5567 5570 5573 5575 5577
5486 5485 5486 5488 5488 5489 5491 5491 5491 5491 5491 5491 5492 5494 5495 5496 5498 5500 5502 5504 5506 5508 5510 5512 5514 5517 5519 5521 5524 5527 5529 5532 5534 5537 5540 5544 5548 5551 5554 5557 5560 5562 5565 5567
5482 5482 5485 5484 5484 5485 5484 5484 5485 5485 5486 5486 5487 5488 5488 5489 5491 5493 5495 5496 5498 5500 5502 5504 5506 5509 5511 5513 5515 5518 5521 5523 5526 5529 5532 5535 5538 5541 5544 5547 5549 5552 5554 5556
5479 5480 5479 5478 5478 5479 5479 5479 5479 5480 5480 5481 5481 5482 5482 5483 5484 5486 5488 5489 5491 5493 5495 5497 5499 5501 5504 5506 5508 5511 5513 5515 5518 5521 5523 5526 5529 5532 5534 5537 5539 5542 5544 5546
5474 5474 5474 5474 5474 5474 5473 5474 5474 5474 5474 5475 5475 5476 5476 5477 5478 5479 5481 5482 5484 5485 5487 5489 5491 5493 5496 5498 5500 5503 5505 5507 5510 5512 5515 5517 5520 5522 5524 5527 5529 5531 5533 5535
5470 5470 5470 5470 5469 5469 5469 5468 5468 5468 5469 5469 5469 5470 5470 5471 5472 5473 5474 5475 5477 5478 5480 5481 5483 5486 5488 5490 5492 5495 5497 5499 5501 5504 5506 5508 5511 5513 5515 5518 5519 5522 5523 5525
5466 5466 5465 5465 5464 5464 5463 5463 5463 5463 5463 5463 5463 5463 5464 5465 5466 5466 5467 5468 5469 5471 5472 5474 5475 5477 5479 5482 5484 5486 5489 5491 5493 5495 5498 5500 5502 5504 5506 5508 5510 5512 5513 5515
5462 5461 5461 5460 5459 5459 5458 5458 5457 5457 5457 5457 5457 5457 5458 5458 5459 5459 5460 5461 5462 5463 5464 5466 5467 5469 5471 5473 5476 5478 5481 5483 5485 5488 5490 5492 5494 5496 5498 5500 5501 5503 5504 5506
5457 5457 5456 5456 5455 5454 5453 5453 5452 5452 5451 5451 5451 5452 5452 5452 5453 5453 5453 5454 5455 5456 5457 5458 5460 5461 5463 5465 5468 5470 5473 5475 5477 5480 5482 5484 5486 5488 5490 5491 5493 5494 5496 5497
5453 5452 5452 5451 5450 5449 5448 5448 5448 5447 5447 5446 5446 5446 5446 5446 5447 5447 5447 5447 5448 5449 5450 5451 5452 5454 5456 5458 5460 5462 5464 5467 5469 5471 5473 5476 5478 5479 5481 5483 5485 5486 5487 5488
5449 5448 5447 5446 5445 5444 5443 5443 5442 5442 5441 5441 5441 5441 5441 5441 5441 5441 5441 5441 5442 5442 5443 5444 5445 5447 5448 5450 5452 5455 5457 5459 5461 5463 5465 5467 5469 5471 5473 5474 5476 5477 5478 5479
5444 5443 5442 5441 5440 5439 5438 5437 5437 5436 5436 5435 5435 5435 5435 5435 5435 5435 5435 5435 5435 5435 5436 5437 5439 5440 5441 5443 5445 5447 5449 5451 5453 5455 5457 5459 5460 5462 5464 5465 5467 5468 5469 5470
5439 5438 5436 5435 5434 5433 5432 5431 5431 5430 5430 5429 5428 5428 5428 5428 5428 5428 5428 5428 5429 5429 5430 5431 5432 5433 5435 5436 5438 5440 5441 5443 5445 5446 5448 5450 5451 5453 5454 5456 5457 5459 5460 5461
5434 5432 5431 5429 5428 5427 5426 5426 5425 5424 5423 5423 5422 5422 5421 5421 5421 5421 5421 5421 5422 5423 5423 5424 5425 5426 5428 5429 5431 5432 5434 5435 5436 5438 5439 5441 5442 5443 5445 5446 5447 5449 5450 5451
5428 5427 5425 5424 5422 5421 5420 5419 5418 5417 5417 5416 5415 5415 5415 5414 5414 5414 5414 5414 5415 5415 5416 5417 5419 5420 5421 5422 5423 5424 5425 5427 5428 5429 5430 5432 5433 5434 5435 5436 5437 5438 5439 5441
5423 5421 5420 5418 5416 5415 5414 5412 5411 5411 5410 5409 5408 5408 5408 5407 5407 5406 5407 5407 5408 5408 5409 5410 5411 5412 5413 5414 5415 5416 5417 5418 5419 5420 5421 5422 5423 5424 5425 5426 5427 5428 5429 5430
5418 5416 5414 5412 5411 5409 5407 5406 5405 5404 5403 5402 5401 5401 5400 5400 5400 5399 5399 5400 5400 5401 5402 5403 5403 5404 5405 5406 5407 5408 5408 5409 5410 5411 5412 5412 5413 5414 5415 5416 5417 5418 5419 5420
5412 5410 5408 5407 5405 5403 5402 5400 5399 5397 5396 5395 5394 5394 5393 5393 5392 5392 5392 5393 5393 5393 5394 5394 5395 5395 5396 5397 5398 5399 5399 5400 5401 5401 5402 5403 5403 5404 5405 5406 5407 5408 5409 5409
5407 5405 5403 5401 5399 5398 5396 5394 5393 5391 5390 5389 5388 5387 5387 5386 5386 5385 5385 5385 5385 5385 5386 5386 5386 5387 5387 5388 5389 5389 5390 5391 5391 5392 5392 5393 5393 5394 5395 5396 5397 5398 5399 5399
5402 5399 5397 5395 5393 5392 5390 5389 5388 5386 5385 5384 5382 5381 5380 5380 5379 5379 5378 5378 5378 5378 5378 5378 5378 5378 5379 5379 5380 5381 5381 5382 5382 5383 5383 5384 5384 5385 5385 5386 5387 5388 5389 5390
5396 5394 5392 5390 5388 5387 5385 5384 5382 5381 5380 5378 5377 5376 5375 5374 5373 5372 5372 5371 5371 5371 5371 5371 5371 5371 5371 5371 5372 5372 5373 5373 5374 5374 5375 5375 5376 5376 5376 5377 5377 5379 5379 5380
5391 5389 5387 5385 5383 5382 5380 5379 5377 5376 5375 5373 5372 5371 5370 5369 5368 5367 5366 5365 5365 5364 5364 5364 5364 5364 5364 5364 5364 5365 5365 5366 5366 5366 5367 5367 5368 5368 5368 5369 5369 5370 5371 5372